Showing default

XCUBE-1, 62400

Orbit data source: Space-Track

XCUBE-1, 62400 is an American payload satellite in LEO that was launched on Sat, 21 Dec 2024 UTC via an FALCON 9 launch vehicle from the Air Force Western Test Range (AFWTR). Payload-class satellites include a variety of spacecraft equipped with specific instruments for various scientific and technological missions. These include communications satellites like Starlink; space stations such as the ISS; scientific satellites like the Hubble; Earth observation satellites from companies like Planet Labs, Umbra, and HawkEye 360; GPS; miniature CubeSats for education and research; and military/defense satellites.

Loading next visibility...
Identifier
62400, 2024-247Z
Orbit
LEO
Country
Flag of USUS
Related business
Manufacturer
EXOBOT
Mission
Operational Commercial Technology
Bus & Motor
CUBESAT 6U, Unknown motor
Mass
12 kg wet, 12 kg dry
Launch date (UTC)
2024-12-21 (11 months ago)
Launch vehicle
FALCON 9
Launch site
Air Force Western Test Range (AFWTR)
Object type
Payload
Rocket body
Debris
Shape & HBR
Box + 2 Pan, 1.0 m
Radar Cross Section
0.138 m², Small (<0.1 m²)

Expand to show TLE details & history
Last TLE update: 1 day ago

TLE from 1 day ago
0 XCUBE-1
1 62400U 24247Z   25312.03296855  .00013800  00000-0  55011-3 0  9999
2 62400  44.9970  59.8107 0006801 321.4811  38.5586 15.25178016 49141
Epoch: 2025-11-08T00:47Z
TLE epoch observation values (Epoch: 2025-11-08T00:47:28.482Z)
Latitude
0.00003°
Longitude
0.47366°
Altitude
486.598 km
Speed
7.626 km/s
True Right ascension
03h 59m 14s
True Declination
0° 00' 00"
Sunlit
Object was in full shadow at epoch
Visualization orbit readout
Latitude
Unknown
Longitude
Unknown
Altitude
Unknown
Speed
Unknown
Apparent Right ascension
Unknown
Apparent Declination
Unknown
Sunlit
N/A
Visualization observer readout
Local Sidereal Time
21:29:31
Azimuth
Unknown
Elevation
Unknown
Doppler factor
Unknown
Orbital elements
Apogee altitude
496.531 km
Perigee altitude
487.187 km
Semi-major axis
6,869.996 km
Eccentricity
0.00068
Inclination
44.997°
RAAN
59.8107°
Arg. of periapsis
321.4811°
True anomaly
38.60721°
Mean anomaly
38.5586°
Eccentric anomaly
38.5829°
Mean motion
3.81161 °/min
Orbital period
94.45 mins
BSTAR
0.00055011
Loading maneuver chart data...
Computing Atmospheric mass density...
Loading historical data...
Loading historical data...
Loading historical data...
Loading historical data...
Loading historical data...
Loading historical data...
Loading historical data...

Documentation

Showing up to 5 results
|